{"data":{"norad_id":45455,"intl_designator":"2020-020AH","name":"ONEWEB-0060","alt_names":[],"object_type":"PAYLOAD","status":"ACTIVE","operator":null,"country":"UK","launch_date":"2020-03-21","launch_site_code":"TYMSC","launch_vehicle":null,"mission":null,"orbit_class":"UNKNOWN","rcs_meters":null,"size_class":null,"mass_kg":null,"dimensions":null,"purposes":["comms"],"wikipedia_slug":null,"has_3d_model":false,"image_url":null,"decayed_at":null,"tle_current":{"epoch":"2026-05-25T03:09:08.659008Z","epoch_age_seconds":63770,"freshness":"FRESH","line1":"1 45455U 20020AH  26145.13135022  .00000262  00000+0  70307-3 0  9991","line2":"2 45455  87.8908  25.6537 0002342  57.4931 302.6423 13.11414361299525","mean_motion":13.11414361,"eccentricity":0.0002342,"inclination_deg":87.8908,"raan_deg":25.6537,"arg_perigee_deg":57.4931,"mean_anomaly_deg":302.6423,"bstar":0.00070307,"rev_number":29952,"period_min":109.80511139911,"perigee_km":1215.9137328871,"apogee_km":1219.4716195075,"semimajor_km":7595.8296761973,"source":"CELESTRAK","updated_at":"2026-05-25T13:38:22.347675Z"}}}